Fort Ord Trail Run

Timing by Brazen Racing


Fort Ord Trail Run - Half Marathon
Female 20 - 29
Place Name City Bib Age Guntime Chiptime Pace
1 Hilary Hayssen San Francisco 3917 22 2:16:13 2:15:56 10:14
2 Ashley Rappa Salinas 3944 27 2:16:54 2:16:51 10:18
3 Laura Lammers San Francisco 3926 27 2:18:13 2:17:56 10:23
4 Kathrinne Hewett Pacific Grove 3983 24 2:18:29 2:18:19 10:24
5 Katy Kunkle San Francisco 3923 26 2:18:40 2:18:29 10:25
6 Kayla Marti Newburgh 3966 23 2:40:37 2:40:22 12:04
7 Dani Gaitan Fenton 3965 23 2:53:50 2:53:36 13:04
 
Male 20 - 29
Place Name City Bib Age Guntime Chiptime Pace
1 Eric Palmer Monterey 3942 29 1:34:25 1:34:24 7:06
2 Randall Higashi Gilroy 3918 27 1:42:04 1:41:58 7:40
3 Jose Cruz Gilroy 3908 22 1:43:15 1:43:10 7:46
4 Robert Cannon San Francisco 3906 28 1:45:12 1:45:06 7:55
5 Mark Moehling Monterey 3984 25 1:52:10 1:52:04 8:26
 
Female 30 - 39
Place Name City Bib Age Guntime Chiptime Pace
1 Melissa Peterson Salinas 3975 30 2:06:24 2:06:21 9:30
2 Amber Swedenborg Pacific Grove 3955 37 2:06:41 2:06:38 9:32
3 Beth Welliver Spreckels 3960 34 2:14:33 2:14:25 10:07
4 Erin Sprague Morgan Hill 3952 30 2:16:33 2:16:19 10:15
5 Karen Grabowski Chicago 3914 38 2:18:09 2:18:01 10:23
6 Sarah Turse Pacific Grove 3958 33 2:24:22 2:23:57 10:50
7 Colby Droubi El Granade 3972 39 2:37:04 2:36:51 11:48
8 Sarah Deal Monterey 3910 31 2:55:03 2:54:54 13:10
9 Joann Mix Monterey 3967 38 3:23:42 3:23:26 15:18
10 Monica Mendoza Oakland 3933 38 3:27:46 3:27:14 15:35
 
Male 30 - 39
Place Name City Bib Age Guntime Chiptime Pace
1 Jorge Moreno Oakland 3936 34 1:44:08 1:44:02 7:50
2 Joshua Youngblood Santa Cruz 3963 38 1:45:50 1:45:46 7:58
3 Joshua Bieszad Lees Summit 3902 39 1:56:24 1:56:11 8:45
4 Brian Moreno Aptos 3935 33 2:03:33 2:03:07 9:16
5 Adam Gable Monterey 3976 34 2:08:26 2:08:07 9:38
6 Nathan May Carmel 3932 32 2:17:53 2:17:40 10:22
7 Matthew Johnson Seaside 3921 35 2:27:42 2:27:20 11:05
8 Colin Evans Los Gatos 5852 34 2:33:21 2:32:57 11:30
9 Takashi Kanamori San Jose 3922 38 2:44:45 2:44:10 12:21
10 Robert Schulz Seaside 3969 31 2:47:39 2:47:19 12:35
 
Female 40 - 49
Place Name City Bib Age Guntime Chiptime Pace
1 Linda Toplarski Monterey 3970 49 2:05:09 2:05:05 9:25
2 Amadita Dicochea San Jose 3982 40 2:07:05 2:06:43 9:32
3 Patty Campbell Chand Clayton 3905 49 2:08:54 2:08:48 9:42
4 Mary Scannell Carmel 3977 48 2:15:57 2:15:42 10:13
5 Christine Villasenor Soledad 3959 40 2:16:02 2:16:01 10:14
6 Michael Rodriguez Salinas 3948 47 2:19:58 2:19:57 10:32
7 Varunee Moser Fair Oaks 3937 47 2:31:20 2:31:09 11:22
8 Shannon Thibert San Jose 3957 41 2:33:32 2:33:20 11:32
9 Amy Royston Fresno 3949 41 2:36:01 2:35:50 11:43
10 Heidi Short Carmel 7466 46 3:06:07 3:05:37 13:58
11 Monica Arvin Pacific Grove 3980 49 3:13:32 3:13:04 14:31
12 Judit Sedillos Carmel Valley 3951 40 3:15:22 3:15:01 14:40
13 Lisa Mineo Monterey 5816 46 4:43:42 4:43:11 21:18
14 Joanie Compagno Seaside 5680 48 4:55:23 4:54:53 22:11
 
Male 40 - 49
Place Name City Bib Age Guntime Chiptime Pace
1 Giles Healey Carmel 3974 44 1:39:22 1:39:18 7:28
2 Stephen Kukta Vallejo 3971 48 1:53:50 1:53:46 8:34
3 Robert Lindstrom Palo Alto 3928 45 2:07:33 2:07:26 9:35
4 Ronnie Platt Santa Cruz 3968 44 2:13:49 2:13:44 10:04
5 Kent Hoxsey Walnut Creek 3920 48 2:27:55 2:27:30 11:06
6 Paul Fellinger Monterey 3912 45 2:29:22 2:29:02 11:13
7 Jess Soco 3978 47 2:31:46 2:31:20 11:23
8 Jonathan Fales Redwood City 3911 40 2:31:36 2:31:33 11:24
9 Matt Suess Carmel 3953 46 2:46:40 2:46:30 12:32
10 Nicholas Chee Salinas 3981 48 2:51:26 2:50:59 12:52
11 Eric Schaper San Jose 3950 47 3:11:08 3:10:41 14:21
 
Female 50 - 59
Place Name City Bib Age Guntime Chiptime Pace
1 Ann Braak Carmel 3964 52 2:37:16 2:36:59 11:49
2 Dagmar Kutis Salinas 3924 54 2:41:35 2:41:30 12:09
3 Laurel Posey Grover Beach 3943 55 2:49:59 2:49:39 12:46
4 Wendy Brule Salinas 3903 52 3:01:31 3:01:12 13:38
5 Dasie Yamagata Citrus Heights 3962 59 4:20:41 4:20:19 19:35
 
Male 50 - 59
Place Name City Bib Age Guntime Chiptime Pace
1 Kirk Hammond Templeton 3916 50 2:05:04 2:04:59 9:24
2 Tim Hoey Hillsborough 3919 55 2:23:48 2:23:34 10:48
3 Eric Loewe El Dorado Hills 3930 56 2:39:19 2:39:02 11:58
4 Paul Kutis Salinas 3925 59 2:41:33 2:41:28 12:09
 
Female 60 - 99
Place Name City Bib Age Guntime Chiptime Pace
1 Patricia Lasalle Dublin 3927 61 2:41:17 2:41:07 12:07
2 Peggy Lehman Davis 3973 63 2:53:10 2:53:03 13:01
 
Male 60 - 99
Place Name City Bib Age Guntime Chiptime Pace
1 Mike Sullivan Pacific Grove 3954 69 2:43:49 2:43:25 12:18
2 Floyd Redmon Aptos 3945 68 2:46:56 2:46:37 12:32
3 Ralph Wright Grover Beach 3961 60 3:00:19 2:59:59 13:32
4 Michael Davis Salinas 3909 60 3:04:35 3:04:06 13:51
5 Paul Alcantra Dublin 3900 63 3:15:16 3:15:05 14:41